Hourly Data Report for November 02, 2003

TORONTO CITY
ONTARIO

43°40'00.000" N
79°24'00.000" W
112.50 m
6158355
71508
XTO

Download Data

Hourly Data (November 2003)
Hourly Data Report for November 2, 2003
TIME
LST
Temp Definition
°C
Dew Point Definition
°C
Rel Hum Definition
%
Precip. Amount Definition
mm

Wind Dir Definition
10's deg

Wind Spd Definition
km/h
Visibility Definition
km
Stn Press Definition
kPa
Hmdx Definition


Wind Chill Definition


Weather Definition


00:00 9.6 4.4 70   LegendMM LegendMM LegendMM 101.08     LegendNANA
01:00 9.5 4.3 70   LegendMM LegendMM LegendMM 101.07     LegendNANA
02:00 9.5 4.8 72   LegendMM LegendMM LegendMM 101.00     LegendNANA
03:00 9.4 5.3 76   LegendMM LegendMM LegendMM 100.98     LegendNANA
04:00 8.4 6.5 88   LegendMM LegendMM LegendMM 100.96     LegendNANA
05:00 8.1 6.8 91   LegendMM LegendMM LegendMM 100.94     LegendNANA
06:00 7.7 6.8 94   LegendMM LegendMM LegendMM 100.90     LegendNANA
07:00 7.6 6.7 94   LegendMM LegendMM LegendMM 100.98     LegendNANA
08:00 7.5 6.7 95   LegendMM LegendMM LegendMM 100.94     LegendNANA
09:00 7.7 7.0 95   LegendMM LegendMM LegendMM 100.88     LegendNANA
10:00 7.7 7.1 96   LegendMM LegendMM LegendMM 100.84     LegendNANA
11:00 7.8 7.2 96   LegendMM LegendMM LegendMM 100.80     LegendNANA
12:00 7.9 7.4 97   LegendMM LegendMM LegendMM 100.70     LegendNANA
13:00 8.2 7.7 97   LegendMM LegendMM LegendMM 100.69     LegendNANA
14:00 8.2 7.8 97   LegendMM LegendMM LegendMM 100.64     LegendNANA
15:00 8.5 8.0 97   LegendMM LegendMM LegendMM 100.63     LegendNANA
16:00 8.5 8.1 97   LegendMM LegendMM LegendMM 100.58     LegendNANA
17:00 8.4 8.0 97   LegendMM LegendMM LegendMM 100.55     LegendNANA
18:00 8.6 8.3 98   LegendMM LegendMM LegendMM 100.66     LegendNANA
19:00 8.7 8.4 98   LegendMM LegendMM LegendMM 100.61     LegendNANA
20:00 8.8 8.5 98   LegendMM LegendMM LegendMM 100.56     LegendNANA
21:00 8.9 8.6 98   LegendMM LegendMM LegendMM 100.62     LegendNANA
22:00 9.0 8.7 98   LegendMM LegendMM LegendMM 100.58     LegendNANA
23:00 8.9 8.6 98   LegendMM LegendMM LegendMM 100.63     LegendNANA

Notes on Data Quality.

Legend

  • E = Estimated
  • M = Missing
  • NA = Not Available*
  • [empty] = Indicates an unobserved value
Date modified: